Wind_Speed
18 18 18 17 20 18 16 18 18 17 16 16 15 14 13 12 11 10 9 8 7 7 6 6 6 6 7 7 8 9 10 10 10 10 10 9 9 9 8 7 7 6 6 5 5 5 5 5 5
17 17 17 18 19 15 16 17 18 17 16 16 15 15 14 12 10 9 8 7 6 6 6 5 5 6 6 7 7 8 9 9 9 9 9 9 9 8 7 7 6 6 6 5 5 5 5 5 5
17 16 16 18 15 14 16 17 17 17 16 16 16 15 14 13 11 9 7 6 5 5 5 4 4 5 6 7 7 7 8 8 9 9 9 9 8 8 7 7 6 6 5 5 5 5 5 5 5
15 16 17 16 13 14 15 16 16 17 17 16 15 15 14 13 12 10 8 6 5 4 3 3 3 4 5 6 7 7 7 7 8 8 8 8 8 7 6 6 6 6 5 5 5 5 5 5 5
15 16 16 13 13 13 14 14 16 17 17 16 15 15 14 13 12 11 9 7 5 4 3 2 3 4 5 6 6 6 6 7 7 7 8 8 7 6 6 6 6 5 5 5 5 5 5 5 5
15 16 12 11 11 13 13 14 15 16 16 16 16 15 15 14 12 11 10 8 6 4 3 2 2 3 5 5 6 6 6 6 6 6 7 7 7 6 6 6 6 6 5 5 5 5 4 4 5
14 14 11 11 11 11 12 13 14 15 15 16 15 15 15 14 13 12 11 9 7 4 2 1 2 3 4 6 6 5 5 6 6 6 6 6 6 6 6 6 6 6 5 5 5 5 5 5 5
12 13 11 10 10 10 11 13 14 14 15 15 15 16 15 14 13 13 12 10 8 5 3 1 2 3 4 5 5 5 4 5 6 6 6 6 6 6 5 5 5 5 5 5 5 5 5 5 5
11 11 8 8 9 10 11 12 13 13 14 15 15 15 15 14 13 12 12 11 9 6 3 1 1 2 3 3 4 4 5 5 6 6 6 6 6 6 5 5 5 4 4 5 5 5 5 4 4
10 8 7 8 8 9 10 11 12 13 14 14 15 15 15 14 14 12 12 11 8 6 3 1 1 1 2 3 4 5 5 6 6 6 6 6 5 5 5 5 5 5 4 4 4 5 4 4 4
8 7 7 7 7 8 9 10 10 12 13 13 14 14 15 14 14 13 12 11 9 6 4 2 0 1 2 3 4 5 6 6 7 7 6 6 5 5 5 5 5 5 4 4 4 4 4 3 3
5 6 6 6 7 7 8 8 9 10 10 11 12 13 13 14 13 13 12 11 9 7 5 3 2 2 3 3 3 5 6 6 7 7 7 6 6 6 5 5 5 5 5 4 4 4 3 3 3
4 4 5 5 6 6 6 7 8 8 9 10 11 12 13 13 13 13 12 11 10 8 6 5 4 3 3 3 3 4 5 6 7 8 8 7 6 6 6 5 5 5 5 4 4 4 3 3 3
2 3 3 5 5 5 5 5 6 7 8 9 10 11 12 13 13 13 12 12 10 10 8 6 5 4 3 4 4 5 5 6 7 8 8 8 7 7 6 6 5 5 5 4 4 4 3 3 3
1 2 3 4 4 4 4 5 5 6 7 8 10 11 12 13 13 13 13 12 11 11 10 8 6 4 4 4 4 5 6 6 7 7 8 8 8 8 8 7 6 5 5 4 4 4 3 3 3
1 2 3 3 4 4 4 4 6 6 6 8 10 11 11 12 13 13 14 13 12 11 10 9 6 5 5 5 5 5 6 6 6 7 8 8 9 9 9 8 7 6 6 5 5 5 4 4 3
2 2 3 4 4 4 4 4 6 6 7 8 10 11 12 12 13 13 14 13 12 12 10 9 8 7 6 5 6 7 7 8 7 8 8 9 9 9 8 8 8 8 7 6 6 6 6 5 4
4 4 5 6 5 5 5 6 7 7 7 8 10 11 12 12 13 13 14 13 12 12 10 9 8 7 6 5 5 6 6 7 8 8 9 10 10 9 9 9 8 8 8 7 7 8 7 7 6
6 6 7 7 6 6 7 7 8 8 8 9 10 11 12 12 13 13 14 13 12 11 10 10 8 8 6 4 4 5 6 6 7 9 9 10 10 10 10 9 9 9 9 9 9 9 8 8 8
7 7 8 8 8 8 8 9 9 9 9 9 10 11 12 13 13 13 13 13 12 11 10 10 9 8 7 5 4 4 5 5 7 8 9 10 11 11 11 11 10 10 10 10 10 10 10 9 9
10 9 10 9 9 9 9 10 11 10 10 9 10 11 12 13 13 14 14 14 13 12 10 9 8 7 6 6 5 4 5 5 5 7 9 10 11 12 12 11 11 10 10 10 11 11 10 10 10
12 11 10 10 9 10 10 8 12 11 11 10 10 11 12 12 13 14 14 14 13 12 10 9 7 6 6 6 5 5 5 6 6 7 7 10 11 12 12 12 12 11 11 11 11 12 12 12 12
14 13 12 11 11 11 12 10 11 12 11 12 11 11 11 12 12 13 14 13 11 11 10 8 7 7 7 6 6 7 7 6 7 8 8 8 11 12 12 13 13 13 13 12 12 13 13 13 13
15 14 13 12 11 12 12 11 9 11 11 12 11 11 11 11 12 13 13 12 11 11 10 8 7 7 8 8 8 8 8 7 8 8 9 9 10 12 13 14 14 14 14 13 13 13 14 14 15
16 14 13 12 12 12 13 12 11 12 11 10 11 11 11 11 11 12 13 12 12 12 11 9 8 8 9 9 9 8 8 8 8 8 9 10 10 11 12 14 14 15 15 15 15 14 14 15 16
17 16 14 12 11 13 15 12 12 11 11 10 10 11 11 10 11 12 13 13 12 11 10 8 7 7 8 9 9 9 10 9 9 10 10 11 11 12 13 13 14 15 16 16 17 16 16 16 17
20 18 17 16 15 13 14 13 11 11 10 10 10 10 10 9 10 12 12 13 12 11 9 8 8 8 8 9 9 10 9 9 10 10 11 11 12 12 13 14 15 15 15 16 18 18 19 18 18
22 21 20 17 15 14 14 13 10 10 10 10 10 10 9 9 10 11 11 12 10 9 9 8 7 8 9 9 9 9 10 10 10 10 11 12 12 12 13 14 15 16 17 17 17 17 18 19 19
24 23 21 19 17 14 12 12 13 11 10 10 10 9 9 10 10 10 11 10 10 8 8 8 7 8 9 9 9 9 9 10 10 11 12 12 13 13 14 15 14 15 16 17 17 19 19 19 20
25 24 22 20 19 16 14 13 14 12 11 11 11 10 9 9 10 11 11 10 9 8 8 8 8 9 9 9 9 9 9 10 11 12 13 13 14 14 14 15 15 16 16 16 17 18 19 19 20
Wind_Direction
78 78 76 76 72 75 79 79 77 76 75 73 73 72 70 70 71 76 83 89 100 108 113 121 128 130 133 136 138 135 130 126 124 124 122 121 119 116 114 116 117 118 119 121 119 121 121 117 116
79 77 75 76 78 77 77 78 76 74 71 70 70 69 67 64 64 69 78 86 98 109 114 120 129 133 137 136 135 133 130 126 127 127 124 122 121 120 117 117 119 121 120 123 126 129 125 120 120
80 76 73 74 79 79 77 76 74 71 67 65 65 65 63 60 57 59 67 80 93 110 119 126 140 147 149 147 138 132 129 128 128 127 125 122 120 120 122 122 123 125 127 131 131 130 125 124 122
82 78 72 73 72 73 73 73 72 69 65 64 62 61 58 56 53 52 57 68 84 100 119 134 151 165 162 154 147 141 137 135 133 130 127 125 122 122 126 127 130 135 137 141 138 133 130 130 126
82 78 72 70 70 69 69 69 67 67 65 61 58 57 53 51 49 49 51 54 64 83 102 137 160 174 170 161 155 148 145 143 142 138 134 129 124 124 131 128 128 134 135 134 133 134 135 135 130
83 79 80 70 68 67 65 63 61 61 59 56 52 52 50 47 44 42 41 45 49 64 86 133 173 184 181 171 165 159 153 150 146 143 144 140 132 128 130 130 131 133 129 129 128 127 131 132 133
82 81 79 69 64 62 62 59 59 58 55 52 47 46 47 44 41 37 36 36 37 46 64 127 179 186 183 177 173 171 169 166 157 154 153 150 148 141 136 133 127 125 126 127 129 132 134 131 132
83 78 69 63 63 59 57 56 56 56 55 51 46 42 41 41 39 36 33 32 32 31 40 76 158 178 184 182 184 186 183 176 171 166 163 160 156 150 142 136 130 124 129 131 135 137 140 138 135
84 81 70 64 62 58 54 56 55 54 51 47 43 41 39 38 37 33 30 29 29 28 36 74 158 183 193 198 199 198 193 188 182 176 172 168 163 158 151 146 139 132 130 137 141 141 145 145 143
84 86 73 65 60 57 52 53 52 50 45 43 40 37 36 34 31 29 24 23 24 26 32 44 166 199 214 219 220 214 205 199 193 188 181 175 170 164 158 158 153 145 137 138 144 151 150 153 155
86 82 73 63 56 55 52 48 48 48 42 37 36 34 33 30 28 26 21 18 17 13 12 9 307 241 235 236 229 219 214 208 202 197 187 179 176 173 169 166 163 158 150 147 147 153 156 166 167
92 80 70 63 54 53 51 48 45 42 38 33 32 30 27 25 24 22 18 16 14 10 5 343 305 270 255 238 225 218 215 209 203 199 192 186 181 180 178 175 171 166 158 153 153 156 164 174 181
93 79 67 58 53 50 46 44 35 30 28 27 26 22 19 18 16 13 10 9 5 1 357 339 314 289 274 251 220 219 217 212 201 198 197 194 189 187 185 182 174 168 166 163 167 166 164 173 180
82 63 55 52 51 43 35 29 22 20 21 17 16 13 11 11 10 6 2 1 357 351 346 333 309 290 278 249 228 226 220 211 201 199 200 199 198 196 195 189 183 178 178 181 180 183 179 182 191
56 43 35 39 43 32 27 14 7 9 11 9 8 5 3 4 2 0 358 355 348 346 344 338 324 296 287 260 238 225 221 216 208 205 205 204 203 202 201 198 196 191 192 198 196 195 197 193 201
339 353 345 356 18 21 29 345 344 352 356 1 1 357 354 352 353 353 355 352 350 345 346 341 333 315 295 272 250 237 231 227 221 218 213 209 207 207 207 205 206 205 208 213 210 203 208 208 213
299 301 303 325 346 355 2 333 338 339 344 352 351 349 349 346 347 348 349 349 350 348 343 336 329 315 293 284 254 249 244 234 226 221 217 213 210 211 212 212 213 215 218 222 223 217 220 223 227
271 286 301 312 325 335 338 329 334 335 334 340 341 340 341 343 344 344 344 345 343 341 339 333 327 320 307 299 270 249 243 232 228 224 224 218 217 218 222 221 220 224 228 231 229 225 228 233 238
266 281 292 306 316 320 322 323 324 327 324 327 331 333 336 340 340 340 342 343 339 337 337 336 332 325 322 312 285 258 249 238 234 228 228 223 221 223 227 229 231 231 233 236 233 232 234 238 242
265 276 288 301 309 310 314 320 321 319 320 319 319 322 327 331 336 337 337 337 335 331 329 331 327 324 319 309 300 277 250 241 241 233 229 228 226 226 226 229 234 235 239 241 240 239 241 244 247
261 267 278 293 306 307 314 319 319 319 315 313 311 312 316 322 328 332 331 329 329 323 321 322 320 320 317 312 308 290 262 257 243 240 232 230 229 228 227 230 236 237 240 245 247 246 245 246 249
256 264 275 287 295 294 307 300 307 315 314 311 309 308 310 314 320 327 328 324 322 320 317 321 319 315 311 310 307 299 280 268 259 255 243 236 231 230 232 238 239 240 245 249 250 249 248 250 253
253 264 271 281 289 294 303 303 298 310 311 309 307 307 307 308 313 320 322 323 322 318 314 314 315 309 303 304 305 297 279 265 260 256 253 251 241 236 241 243 243 244 248 251 253 252 252 253 255
255 261 269 279 285 288 294 301 299 301 306 306 305 306 307 305 309 316 319 320 318 314 306 307 307 305 301 295 297 300 284 274 264 256 257 258 251 244 247 247 250 251 253 257 256 253 255 256 257
250 253 262 273 280 282 291 298 296 300 304 306 307 306 306 304 305 311 314 316 315 310 301 300 302 305 304 297 295 296 288 280 271 267 264 263 259 254 252 254 253 252 256 258 254 255 258 260 261
244 245 248 254 266 278 291 295 299 302 302 303 304 305 303 300 304 309 312 312 313 311 304 299 301 304 305 299 294 289 283 279 275 274 271 269 268 262 257 256 257 257 257 257 255 256 259 261 264
243 244 247 255 263 269 281 293 296 297 300 302 301 304 302 299 308 310 312 316 314 310 305 301 298 298 304 301 294 290 277 274 273 275 276 274 272 268 263 259 260 260 261 260 259 259 260 261 265
243 245 249 253 261 268 279 288 286 290 294 297 299 299 296 296 306 312 315 320 317 311 306 301 296 296 300 299 296 291 279 270 271 273 276 274 272 270 269 267 265 262 263 263 262 263 263 264 265
243 245 248 251 255 260 269 278 281 284 288 291 293 294 293 293 299 308 318 322 322 316 310 307 303 299 301 301 298 290 284 278 277 278 280 280 278 274 273 270 269 270 268 264 265 266 266 265 266
244 246 249 251 257 260 258 268 278 282 285 286 284 281 286 293 298 302 310 316 322 320 313 310 307 306 303 298 294 289 287 283 281 279 282 283 281 276 273 270 272 273 271 267 267 269 268 269 269
Height
5913 5913 5913 5913 5914 5915 5912 5911 5910 5909 5908 5907 5905 5904 5904 5904 5905 5906 5904 5902 5902 5902 5902 5902 5902 5903 5903 5903 5903 5903 5903 5903 5904 5904 5904 5905 5905 5905 5906 5906 5907 5907 5907 5908 5908 5908 5908 5908 5909
5915 5915 5916 5916 5918 5917 5915 5914 5912 5911 5910 5908 5907 5906 5905 5905 5905 5904 5903 5903 5903 5903 5903 5903 5903 5903 5903 5904 5904 5904 5904 5904 5904 5905 5905 5905 5905 5906 5906 5907 5907 5907 5908 5908 5908 5908 5909 5909 5909
5918 5918 5919 5920 5920 5919 5918 5916 5914 5912 5911 5909 5908 5907 5907 5906 5905 5905 5904 5904 5903 5903 5903 5903 5904 5904 5904 5904 5905 5905 5905 5905 5905 5905 5905 5906 5906 5906 5906 5907 5907 5908 5908 5908 5908 5909 5909 5909 5910
5921 5921 5922 5924 5922 5921 5919 5918 5915 5914 5913 5911 5910 5909 5908 5907 5906 5906 5905 5904 5904 5904 5904 5904 5904 5904 5904 5905 5905 5905 5905 5905 5905 5906 5906 5906 5906 5906 5907 5907 5907 5908 5908 5909 5909 5909 5909 5910 5910
5923 5924 5926 5926 5924 5923 5921 5919 5917 5916 5914 5913 5912 5910 5909 5908 5907 5907 5905 5905 5904 5904 5904 5904 5904 5904 5905 5905 5905 5905 5906 5906 5906 5906 5906 5906 5906 5907 5907 5907 5908 5908 5908 5909 5909 5909 5910 5910 5910
5926 5927 5930 5929 5926 5925 5923 5921 5919 5918 5916 5915 5913 5912 5910 5909 5908 5907 5906 5905 5904 5904 5904 5904 5904 5904 5905 5905 5905 5906 5906 5906 5906 5906 5906 5907 5907 5907 5907 5907 5908 5908 5908 5909 5909 5909 5910 5910 5911
5928 5930 5930 5930 5928 5927 5925 5923 5921 5919 5918 5916 5915 5913 5911 5910 5909 5908 5906 5905 5904 5904 5904 5904 5904 5904 5904 5905 5905 5905 5906 5906 5906 5906 5907 5907 5907 5907 5907 5908 5908 5908 5909 5909 5909 5910 5910 5911 5911
5929 5931 5932 5931 5930 5929 5927 5924 5923 5921 5920 5918 5916 5915 5913 5911 5910 5908 5907 5906 5905 5904 5904 5904 5903 5903 5904 5904 5905 5905 5905 5906 5906 5906 5906 5907 5907 5907 5908 5908 5908 5908 5909 5909 5909 5910 5910 5911 5911
5930 5934 5933 5932 5931 5930 5928 5926 5924 5923 5921 5919 5917 5916 5914 5912 5910 5909 5908 5906 5905 5904 5903 5903 5903 5903 5903 5903 5904 5904 5905 5905 5905 5906 5906 5906 5907 5907 5908 5908 5908 5909 5909 5909 5910 5910 5911 5911 5912
5932 5935 5933 5932 5931 5930 5929 5927 5926 5924 5922 5920 5919 5917 5915 5913 5911 5910 5908 5907 5905 5904 5903 5903 5902 5902 5902 5902 5903 5903 5904 5904 5905 5905 5906 5906 5906 5907 5907 5908 5909 5909 5909 5910 5910 5910 5911 5911 5912
5932 5933 5933 5932 5931 5930 5929 5928 5927 5925 5924 5922 5920 5918 5916 5914 5912 5911 5909 5907 5906 5904 5903 5902 5901 5901 5901 5901 5902 5902 5903 5903 5904 5905 5905 5906 5906 5907 5907 5908 5909 5909 5909 5910 5910 5910 5911 5911 5911
5932 5933 5933 5932 5932 5931 5930 5929 5928 5926 5925 5923 5921 5919 5917 5915 5913 5911 5909 5908 5906 5904 5903 5902 5901 5900 5900 5900 5901 5901 5902 5902 5903 5904 5905 5905 5906 5906 5907 5908 5908 5909 5909 5910 5910 5910 5911 5911 5911
5933 5933 5933 5932 5932 5932 5931 5930 5929 5927 5925 5924 5922 5920 5918 5916 5914 5912 5910 5908 5906 5905 5903 5902 5901 5900 5900 5899 5900 5900 5901 5901 5902 5903 5904 5905 5905 5906 5907 5907 5908 5908 5909 5910 5910 5910 5911 5911 5911
5933 5933 5933 5933 5932 5932 5931 5930 5929 5928 5926 5924 5922 5920 5918 5917 5915 5912 5910 5908 5906 5904 5903 5901 5900 5899 5899 5898 5898 5899 5900 5900 5901 5902 5903 5904 5904 5905 5906 5907 5907 5908 5909 5909 5910 5910 5910 5911 5911
5933 5933 5933 5933 5932 5932 5932 5931 5929 5928 5926 5925 5923 5921 5919 5917 5915 5912 5910 5908 5905 5903 5901 5900 5898 5898 5898 5897 5897 5898 5898 5899 5900 5901 5902 5903 5904 5904 5905 5906 5907 5907 5908 5909 5909 5910 5910 5911 5911
5933 5933 5934 5933 5932 5932 5933 5933 5930 5928 5927 5925 5923 5921 5919 5917 5914 5912 5909 5907 5904 5902 5901 5899 5898 5898 5897 5896 5896 5896 5897 5898 5899 5900 5901 5902 5903 5903 5904 5905 5906 5907 5908 5908 5909 5909 5910 5910 5911
5932 5934 5934 5933 5932 5931 5932 5931 5930 5928 5927 5925 5923 5921 5919 5916 5914 5911 5908 5906 5904 5902 5900 5899 5898 5897 5896 5895 5895 5895 5896 5896 5897 5898 5899 5900 5902 5902 5903 5904 5905 5906 5907 5907 5908 5909 5909 5910 5910
5932 5932 5932 5932 5931 5931 5931 5930 5929 5927 5926 5925 5923 5920 5918 5916 5913 5910 5908 5905 5903 5901 5899 5898 5896 5895 5895 5894 5893 5894 5894 5895 5896 5897 5898 5899 5900 5901 5902 5903 5904 5905 5906 5906 5907 5907 5908 5909 5909
5930 5930 5931 5930 5930 5930 5930 5929 5928 5927 5926 5924 5922 5920 5918 5915 5912 5910 5907 5904 5902 5900 5898 5897 5896 5894 5894 5893 5893 5893 5893 5893 5894 5895 5896 5897 5898 5899 5900 5901 5902 5903 5904 5905 5905 5906 5906 5907 5907
5928 5928 5929 5929 5929 5929 5928 5928 5927 5925 5924 5923 5921 5919 5917 5914 5912 5909 5906 5904 5902 5900 5898 5896 5895 5894 5894 5893 5892 5892 5892 5892 5893 5893 5894 5895 5896 5897 5898 5899 5900 5901 5902 5903 5903 5904 5904 5905 5905
5925 5926 5927 5927 5927 5927 5927 5927 5925 5924 5922 5921 5920 5918 5916 5913 5911 5908 5905 5903 5900 5898 5897 5896 5894 5893 5893 5892 5891 5891 5891 5891 5891 5892 5892 5893 5894 5895 5896 5897 5898 5899 5900 5900 5901 5902 5902 5903 5903
5922 5923 5924 5925 5925 5926 5926 5928 5924 5922 5920 5919 5918 5916 5914 5912 5910 5907 5904 5901 5899 5897 5896 5895 5893 5892 5892 5891 5891 5890 5890 5890 5890 5890 5890 5891 5892 5892 5893 5894 5895 5896 5897 5898 5899 5899 5900 5900 5901
5919 5921 5922 5922 5923 5924 5923 5924 5925 5920 5919 5917 5915 5914 5912 5910 5908 5906 5903 5900 5898 5896 5894 5893 5893 5892 5891 5890 5890 5889 5889 5888 5889 5889 5889 5889 5890 5890 5891 5892 5893 5894 5895 5896 5896 5897 5897 5897 5898
5916 5918 5919 5920 5921 5922 5921 5921 5921 5919 5916 5914 5913 5912 5910 5908 5906 5904 5902 5899 5897 5895 5893 5892 5891 5890 5890 5889 5889 5888 5887 5887 5887 5887 5887 5887 5887 5888 5889 5890 5891 5891 5892 5893 5893 5893 5894 5894 5895
5914 5916 5918 5919 5920 5920 5918 5917 5918 5915 5913 5912 5911 5909 5908 5906 5904 5902 5900 5897 5895 5893 5892 5891 5890 5889 5888 5888 5887 5886 5886 5885 5885 5885 5885 5885 5885 5886 5886 5887 5888 5888 5889 5889 5890 5890 5891 5891 5891
5910 5913 5916 5918 5919 5918 5914 5914 5915 5912 5911 5909 5908 5907 5905 5904 5902 5900 5898 5895 5893 5892 5890 5889 5888 5887 5887 5886 5885 5884 5884 5884 5883 5883 5883 5883 5883 5883 5883 5884 5885 5885 5886 5886 5886 5887 5887 5887 5887
5905 5908 5911 5913 5913 5914 5913 5912 5911 5909 5908 5907 5906 5904 5903 5901 5900 5898 5896 5893 5891 5889 5888 5887 5886 5886 5885 5884 5883 5882 5881 5881 5881 5881 5881 5881 5881 5880 5880 5880 5881 5882 5882 5882 5882 5883 5883 5883 5883
5901 5903 5906 5908 5909 5911 5911 5909 5909 5907 5906 5905 5903 5902 5901 5899 5898 5896 5894 5892 5889 5888 5886 5885 5885 5884 5883 5882 5881 5879 5879 5879 5879 5879 5878 5878 5878 5877 5877 5877 5877 5878 5878 5878 5878 5878 5878 5879 5879
5896 5899 5901 5903 5905 5907 5909 5910 5905 5904 5903 5902 5901 5900 5899 5897 5896 5894 5892 5890 5888 5886 5885 5884 5883 5882 5881 5879 5878 5878 5877 5876 5876 5876 5876 5875 5874 5874 5874 5874 5874 5874 5874 5874 5874 5874 5874 5874 5874
5891 5893 5896 5899 5900 5902 5904 5908 5901 5901 5900 5899 5898 5897 5896 5895 5894 5893 5891 5889 5887 5885 5884 5883 5882 5880 5879 5878 5877 5876 5875 5874 5874 5873 5873 5872 5871 5871 5870 5870 5870 5870 5870 5870 5870 5870 5869 5869 5869